Home > Weather > Fukushima > Past weeks

Flag for Japan Past Weather in Fukushima, Japan — Yesterday and Last 2 Weeks

Now
64 °F

Mild.


Feels Like: 64 °F
Forecast: 63 / 77 °F
Wind: 5 mph from West

Location: Wakamatsu

Current Time: Jun 26, 2016 at 6:22:28 AM

Latest Report: Jun 26, 2016 at 5:00 AM


Visibility: 11 mi

Pressure: 29.67 "Hg

Humidity: 94%

Dew Point: 62 °F

Location of FukushimaLocation

Past Weather in Fukushima — Graph

°F

Fukushima Temperature Yesterday

Maximum temperature yesterday: 78 °F (at 3:00 PM)
Minimum temperature yesterday: 65 °F (at 11:00 PM)
Average temperature yesterday: 70 °F

High & Low Weather Summary for the Past Weeks

 TemperatureHumidityPressure
High89 °F (Jun 19, 12:00 PM)99% (Jun 25, 1:00 AM)30.03 "Hg (Jun 25, 1:00 AM)
Low61 °F (Jun 11, 5:00 AM)37% (Jun 11, 2:00 PM)29.44 "Hg (Jun 25, 3:00 AM)
Average72 °F73%29.74 "Hg
* Reported Jun 11 5:00 AM — Jun 26 5:00 AM, Fukushima, Weather by CustomWeather, © 2016

Note: Actual official high and low records may vary slightly from our data, if they occured in-between our weather recording intervals... More about our weather records

Advertising

Fukushima Weather History for the Previous 24 Hours

Scroll right to see more
 ConditionsComfort  
Time TempWeatherWind HumidityBarometerVisibility
5:00 AM
Sun, Jun 26
64 °FMild.5 mph94%29.67 "Hg11 mi
4:00 AM63 °FMild.3 mph98%29.65 "Hg7 mi
3:00 AM64 °FLight rain. Overcast.5 mph97%29.65 "Hg11 mi
2:00 AM64 °FMild.2 mph96%29.64 "Hg9 mi
1:00 AM64 °FLight rain. Overcast.5 mph94%29.64 "Hg11 mi
12:00 AM65 °FLight rain. Overcast.3 mph95%29.65 "Hg10 mi
11:00 PM
Sat, Jun 25
65 °FLight rain. Overcast.2 mph92%29.65 "Hg6 mi
10:00 PM66 °FLight rain. Overcast.2 mph94%29.63 "Hg9 mi
9:00 PM67 °FLight rain. Overcast.7 mph93%29.62 "Hg4 mi
8:00 PM67 °FRain. Overcast.5 mph95%29.61 "Hg4 mi
7:00 PM69 °FLight rain. Overcast.7 mph87%29.59 "Hg7 mi
6:00 PM74 °FMild.5 mph72%29.56 "Hg12 mi
5:00 PM75 °FMild.6 mph66%29.54 "Hg12 mi
4:00 PM76 °FMild.6 mph61%29.53 "Hg12 mi
3:00 PM78 °FWarm.6 mph58%29.50 "Hg12 mi
2:00 PM75 °FMild.8 mph62%29.54 "Hg12 mi
1:00 PM74 °FMild.7 mph64%29.56 "Hg12 mi
12:00 PM73 °FMild.7 mph70%29.55 "Hg12 mi
11:00 AM75 °FMild.9 mph70%29.54 "Hg12 mi
10:00 AM72 °FMild.1 mph85%29.54 "Hg12 mi
9:00 AM71 °FMild.2 mph91%29.53 "Hg12 mi
8:00 AM70 °FMild.1 mph93%29.53 "Hg12 mi
7:00 AM69 °FMild.2 mph97%29.50 "Hg12 mi
6:00 AM67 °FMild.2 mph98%29.47 "Hg11 mi
Weather by CustomWeather, © 2016

See weather overviewHow to use our weather pages